Dewpoint
28 24 23 22 20 20 20 20 19 18 19 18 21 20 15 15 15 16 15 15 16 14 14 14 14 14 14 14 15 15 16 16 15 15 15 16 16 17 16 17 17 17 17 29 31 30 31 34 31 30 29 27 27 27 27 30 33 34 34 34 33 34 35 36 39 41 41 39 38 37 34 34 34 33 34 34 34 33 32 34 34 35 34 36 35 34
26 24 23 22 20 19 20 20 19 19 19 18 19 19 17 22 16 17 16 17 16 16 15 14 15 16 16 16 16 17 17 16 16 16 16 16 16 17 18 18 19 17 24 31 27 25 33 30 34 33 31 31 27 26 27 29 31 33 33 33 33 34 34 34 36 39 40 40 38 35 34 35 34 33 32 32 32 33 33 34 34 34 34 36 35 34
24 22 22 23 23 22 20 19 19 19 19 20 18 19 19 18 20 18 18 18 18 18 16 16 16 16 16 17 17 17 17 17 17 17 17 16 17 18 19 21 21 22 23 22 22 25 26 32 32 32 33 31 28 27 28 29 31 33 33 33 33 33 33 34 35 37 38 38 38 36 36 34 34 34 33 33 33 33 32 33 34 34 34 35 34 34
23 25 23 23 23 22 22 22 20 22 22 19 19 19 18 20 18 17 16 18 18 17 16 17 17 17 17 17 18 18 18 18 19 19 20 19 18 18 18 20 22 22 24 23 22 22 23 27 27 30 30 30 31 30 28 28 30 31 33 33 33 32 33 33 34 35 36 37 37 35 34 34 33 32 33 33 33 33 33 32 33 33 33 34 34 34
23 24 24 24 24 22 21 21 22 20 19 24 23 21 19 20 19 17 16 19 19 18 20 17 17 17 16 15 16 16 18 18 18 18 19 21 27 24 26 25 27 22 21 23 22 23 24 24 26 27 28 30 31 31 30 30 30 29 32 33 33 32 32 32 33 35 35 35 34 33 34 34 33 34 32 32 31 32 32 31 32 32 33 34 33 33
23 24 25 24 25 23 23 21 22 23 20 21 24 21 19 18 18 17 20 19 18 19 18 18 15 19 17 19 20 17 15 14 15 17 17 18 21 24 18 20 24 30 28 25 23 24 25 26 27 28 29 29 30 30 31 32 31 30 32 33 33 33 32 32 33 34 34 34 33 32 31 30 30 30 30 29 29 30 31 30 31 32 32 33 33 33
24 25 26 24 24 24 24 22 23 23 20 21 19 23 20 19 20 21 20 20 17 14 17 19 17 16 16 15 16 14 15 14 15 21 17 17 16 18 21 22 22 23 24 28 26 26 25 26 26 26 28 30 29 30 32 32 32 32 33 34 33 32 32 33 32 34 34 34 32 31 31 31 30 30 31 30 31 30 30 31 30 31 32 33 32 32
22 22 24 25 24 24 23 21 24 21 22 20 24 24 24 22 22 22 22 21 19 23 23 22 17 15 17 16 15 14 14 14 15 15 17 16 16 17 17 21 22 23 24 26 26 26 26 26 26 23 25 26 27 30 31 33 33 32 32 33 33 32 32 33 33 33 33 32 32 32 32 31 31 31 31 31 30 31 31 31 31 30 30 32 32 32
22 22 23 23 23 23 22 23 25 24 20 21 24 24 23 21 22 23 21 20 20 18 19 20 21 15 16 18 16 16 16 15 15 15 16 17 18 18 20 22 24 23 25 24 25 24 24 25 24 24 25 28 29 31 31 32 33 34 33 33 32 32 32 33 32 32 33 32 32 32 32 31 32 31 32 32 32 31 32 31 31 30 30 31 32 31
19 22 23 25 24 21 24 23 24 24 21 23 25 26 25 24 24 22 20 19 18 16 17 17 19 13 16 23 15 17 17 15 15 16 15 16 18 20 20 23 22 21 23 25 24 24 24 24 25 26 27 28 29 30 31 31 32 32 31 31 31 31 32 32 32 32 32 32 32 31 31 32 31 31 31 31 31 31 32 31 31 30 30 30 30 31
23 29 28 23 22 21 22 22 26 24 24 26 26 24 24 22 22 21 20 21 17 12 17 18 18 16 15 20 17 17 21 16 16 14 14 14 18 17 19 22 24 21 22 24 24 23 24 25 25 27 28 29 28 29 30 31 31 31 32 31 30 30 31 32 32 32 32 32 32 31 32 32 31 32 31 31 31 31 31 30 31 30 30 30 30 30
23 23 23 27 27 23 23 23 26 27 27 26 24 20 19 21 17 15 11 16 12 13 17 19 18 16 14 17 17 16 15 16 15 16 14 14 14 17 20 21 23 22 23 25 23 24 25 26 27 28 29 29 28 28 28 29 30 30 30 31 30 30 31 31 32 32 32 32 32 32 32 31 31 31 30 30 30 30 30 30 30 30 30 29 30 30
21 23 26 24 31 22 22 21 20 27 26 25 22 22 16 16 14 9 10 9 10 15 18 18 18 15 14 16 15 17 17 18 18 16 16 16 15 17 19 22 23 24 24 24 24 25 27 27 28 28 28 28 27 27 28 29 29 29 29 29 29 29 30 30 31 32 32 32 31 31 31 31 31 31 30 30 30 30 30 30 30 30 29 29 29 29
25 23 22 25 23 26 24 19 19 19 24 22 20 21 17 12 9 7 7 6 10 16 17 17 18 15 17 17 18 17 18 18 17 17 20 18 18 19 21 23 22 24 24 25 26 27 27 28 28 28 28 27 27 26 27 28 29 28 28 28 28 29 29 30 31 31 31 32 32 32 31 31 31 30 30 30 29 30 30 30 30 29 29 29 29 29
19 25 26 22 22 25 22 21 21 23 23 21 25 20 21 17 12 13 12 16 18 21 16 15 14 17 14 20 18 19 18 19 17 17 22 22 22 22 23 22 22 23 25 26 27 28 28 28 28 28 27 27 27 26 27 27 28 28 28 28 28 28 28 29 29 30 31 31 31 31 32 31 31 31 30 29 31 30 30 30 30 30 29 29 29 29
22 24 26 25 25 24 23 25 26 25 22 24 25 23 17 19 22 17 21 21 20 20 16 12 17 17 16 19 21 21 20 20 19 20 19 16 17 20 22 24 25 26 27 28 28 28 28 28 28 28 28 27 27 27 27 26 27 28 28 28 28 27 28 28 29 29 30 30 30 31 31 31 30 30 31 31 30 30 30 30 30 30 30 29 29 30
24 23 26 24 25 23 23 24 22 24 18 22 22 18 21 25 22 19 22 21 20 17 17 20 18 21 22 22 23 23 19 16 16 14 13 17 20 22 24 27 27 28 28 29 29 29 29 29 29 28 28 27 27 27 27 27 27 27 27 27 27 27 27 27 28 29 29 30 30 30 30 30 31 30 30 29 30 30 30 30 30 29 30 30 30 30
29 28 26 23 22 23 24 25 25 25 25 22 19 21 26 29 26 19 18 18 17 17 18 21 20 21 20 22 23 22 22 20 18 15 19 22 23 25 27 28 28 29 29 29 29 29 29 29 29 29 28 27 27 27 27 27 27 27 27 26 26 26 26 27 27 27 28 28 29 29 29 29 29 29 29 30 29 29 28 29 29 29 29 29 29 29
27 22 25 26 25 26 26 26 24 26 26 22 25 29 22 21 20 20 20 16 17 18 20 20 20 21 22 21 22 22 21 19 19 22 24 25 26 27 27 28 28 28 28 28 28 28 28 29 29 28 28 27 27 27 27 28 28 27 26 26 26 26 26 26 27 26 26 27 28 30 29 29 28 28 28 29 29 28 27 27 27 28 28 28 29 28
26 25 25 28 25 26 27 26 21 24 27 27 26 24 27 22 22 21 22 22 23 20 21 22 22 23 26 23 22 21 20 23 23 25 26 26 26 26 27 26 27 26 26 26 27 27 28 28 28 28 28 27 26 26 26 27 27 26 26 25 25 25 25 25 26 25 24 26 26 27 27 27 28 28 28 28 28 27 27 26 27 27 27 27 27 27
25 28 22 26 29 27 23 26 24 25 24 22 23 22 23 22 26 25 24 26 23 22 22 21 21 25 26 22 20 22 26 26 25 26 27 26 26 25 25 25 25 25 24 24 25 25 25 26 26 27 27 27 27 26 26 26 26 26 25 24 24 24 24 25 25 26 26 26 25 24 24 24 25 26 27 27 27 27 26 26 26 26 26 27 26 27
25 27 24 24 24 25 25 27 26 26 26 25 23 22 23 22 23 22 21 25 25 24 22 21 19 24 28 26 23 26 27 27 28 27 26 26 25 25 24 24 24 23 23 23 23 23 24 25 25 26 26 27 26 26 25 26 25 25 25 24 23 23 23 24 25 26 26 25 25 24 24 24 24 25 25 25 25 26 26 25 26 26 26 25 26 26
30 29 28 25 26 26 28 29 30 28 28 28 26 26 29 29 28 26 22 24 25 23 22 23 21 21 27 29 27 27 26 27 27 26 25 25 24 24 24 24 23 23 22 22 22 22 23 23 24 25 25 25 25 26 26 25 25 25 25 24 23 23 23 24 25 25 25 25 24 23 23 23 23 23 23 24 24 24 24 25 25 25 24 24 24 25
35 22 24 26 28 29 30 31 31 27 28 28 28 27 29 26 26 25 25 24 22 22 21 21 20 24 31 31 29 27 26 26 26 25 25 24 24 23 23 22 22 21 21 21 21 21 21 22 23 24 25 25 25 25 25 25 25 25 25 24 23 23 23 23 25 25 25 25 24 24 23 22 22 22 22 23 23 23 23 24 24 25 24 24 24 23
26 26 28 26 26 26 27 28 28 27 28 27 26 28 27 27 27 26 26 24 22 24 24 22 19 21 33 31 30 29 27 26 25 25 25 24 24 24 23 23 22 21 20 20 20 20 20 20 22 23 24 25 24 25 25 25 25 24 25 24 23 23 23 24 25 25 25 25 24 24 24 24 23 22 21 22 22 22 23 23 23 24 23 23 22 23
29 26 26 22 19 18 16 14 15 20 23 26 27 27 28 28 28 28 24 25 23 27 26 24 23 27 31 29 27 24 26 26 25 25 25 25 24 23 23 23 23 22 21 20 21 21 20 21 22 23 24 25 24 24 25 24 24 24 25 24 24 23 24 25 25 25 24 25 25 25 25 25 24 23 22 22 21 21 22 22 23 23 23 23 22 22
29 30 30 29 26 23 23 25 29 31 29 28 28 30 30 30 29 30 29 27 24 25 25 26 26 26 25 25 26 24 23 25 25 24 24 24 24 24 23 23 23 22 22 20 21 21 21 21 22 23 24 25 24 24 25 24 24 24 24 24 23 24 25 25 25 24 24 24 25 25 25 25 25 25 24 23 22 21 21 21 22 23 23 22 22 22
29 30 31 31 30 30 30 30 31 32 30 31 30 29 30 29 29 28 26 24 26 25 21 25 25 25 25 30 24 21 20 23 25 23 23 23 23 24 23 22 24 21 21 21 20 21 21 21 22 23 24 24 24 23 23 23 23 23 24 23 23 23 25 26 25 24 24 24 24 25 25 25 26 26 25 25 24 23 23 22 22 22 23 24 22 22
28 28 29 30 29 31 31 31 31 30 29 28 28 28 27 29 29 28 28 29 29 26 23 27 29 27 27 28 25 21 21 21 25 23 24 24 22 22 21 19 21 20 21 21 20 21 22 21 22 23 24 24 23 22 22 21 20 21 22 22 21 22 24 25 25 24 23 24 24 25 25 25 25 25 26 26 26 26 25 24 23 23 23 23 23 23
25 24 27 28 27 27 27 28 28 27 26 26 26 27 28 27 26 26 25 26 26 25 26 26 26 26 27 26 25 21 21 22 22 25 23 22 21 21 18 15 19 19 21 22 21 21 22 22 23 23 24 23 22 21 21 19 18 19 19 18 18 20 23 25 24 23 22 23 24 25 25 25 25 26 26 26 27 26 26 26 25 25 25 25 24 24
28 23 26 24 24 24 27 27 26 26 26 23 23 23 23 22 22 23 23 23 24 24 25 25 25 25 25 25 25 22 21 21 23 19 22 22 22 20 16 13 18 17 21 22 22 21 22 22 23 23 24 23 21 21 21 20 19 18 17 16 17 18 21 23 22 22 22 23 24 25 25 25 25 25 26 26 27 28 28 27 27 27 27 26 26 25
26 23 25 22 21 21 23 23 23 23 22 20 19 19 18 18 17 17 18 19 19 18 18 18 19 20 20 23 22 22 21 19 18 16 21 23 22 21 15 13 17 17 20 21 22 22 22 22 22 23 24 22 21 21 21 20 19 17 17 16 16 18 20 20 20 20 21 23 25 25 25 25 25 25 26 27 27 28 28 28 27 27 27 27 26 25
26 25 23 22 20 18 22 23 21 18 17 15 16 16 17 17 17 17 17 17 16 16 17 16 16 21 20 24 18 20 21 20 18 17 18 22 23 20 15 13 17 17 20 21 22 22 22 21 22 23 23 22 21 21 21 20 18 18 18 16 17 18 18 18 18 19 20 22 24 24 24 24 25 25 26 27 27 27 27 27 27 27 27 27 27 26
27 25 22 24 17 16 19 19 17 14 9 9 19 23 16 11 10 8 7 10 16 22 21 20 20 18 21 22 21 18 20 20 19 18 18 19 22 20 16 14 17 18 20 22 23 22 22 22 22 23 23 21 20 20 21 19 18 18 17 16 16 18 18 18 18 18 20 22 23 23 22 23 25 25 26 27 27 26 26 26 26 26 26 26 26 26
23 23 21 22 16 15 17 13 12 8 7 17 23 23 22 22 21 19 18 22 18 20 19 20 20 21 20 22 20 19 20 20 21 21 19 21 22 18 14 14 17 19 20 22 23 23 22 22 22 22 22 20 20 21 19 17 16 16 13 14 16 16 17 17 18 19 19 21 21 21 21 20 21 25 26 27 26 26 26 26 26 26 26 26 26 26
20 19 18 12 11 1 5 7 2 -0 11 18 23 22 22 22 21 20 19 23 22 21 21 20 21 20 22 22 21 22 22 21 22 22 21 21 22 20 15 15 16 18 20 21 23 23 23 21 21 21 21 21 20 18 16 14 15 13 13 14 16 16 18 18 18 18 18 19 20 18 17 17 20 25 27 27 26 25 25 25 26 26 26 25 25 25
22 20 11 9 6 7 3 4 5 8 9 9 8 17 18 18 17 15 12 15 22 21 19 18 18 23 23 23 23 22 23 22 19 18 18 19 22 21 16 16 18 19 21 23 24 23 22 22 22 22 21 19 18 16 14 13 13 13 13 14 15 15 15 16 16 17 16 18 17 16 15 16 19 25 27 26 25 24 24 25 25 25 25 25 24 24
23 19 15 12 6 13 4 5 4 2 1 3 13 16 20 16 18 20 17 16 23 22 20 21 21 21 22 22 22 22 22 17 13 9 16 21 22 22 20 21 21 23 23 24 24 22 21 20 20 20 20 17 16 16 13 12 12 12 12 13 13 14 14 14 14 14 16 15 16 13 12 15 20 26 26 24 23 23 24 24 24 25 25 24 24 24
22 22 18 17 13 14 11 9 7 5 5 16 14 14 15 18 21 22 16 11 20 20 16 19 19 21 21 21 21 21 15 8 10 8 9 19 18 17 16 17 19 20 21 21 21 20 19 18 18 18 17 16 14 13 11 11 11 11 12 12 12 12 12 12 12 14 14 13 12 11 12 15 20 23 22 21 21 20 21 22 24 24 24 24 24 24
20 21 20 16 15 15 13 11 8 10 9 14 14 15 14 22 24 15 4 6 12 15 15 17 18 18 19 20 19 18 15 9 11 10 11 14 15 13 15 17 18 18 18 19 19 19 18 18 17 14 12 11 10 11 10 10 10 12 11 11 11 11 11 12 11 12 12 10 9 10 11 14 18 20 20 19 18 17 18 21 22 23 23 23 23 23
5 10 13 13 15 16 17 13 13 13 17 17 17 16 15 17 10 1 3 4 13 15 13 15 16 17 17 17 19 15 18 17 14 12 13 14 15 17 18 19 18 18 18 18 17 21 16 14 13 11 10 9 9 10 10 10 10 10 10 10 10 10 10 10 10 11 9 8 8 9 10 13 16 18 17 15 14 15 16 17 19 21 22 23 23 23
2 -3 1 6 9 13 14 12 12 12 17 18 17 14 14 6 -0 3 7 8 10 11 11 15 17 18 18 17 18 19 18 18 19 18 17 16 16 17 17 18 17 17 17 17 18 17 13 10 9 9 8 8 8 9 9 9 9 9 8 9 9 9 9 10 9 9 9 8 8 8 10 13 15 14 12 11 12 12 13 14 16 19 21 21 22 22
2 -2 -4 3 4 4 7 8 8 4 5 14 12 4 5 3 6 13 9 9 11 9 8 14 17 16 17 17 18 18 19 19 19 19 18 18 18 17 17 16 16 16 15 14 13 13 12 9 8 8 8 7 8 8 9 7 8 9 9 8 8 7 7 8 8 7 7 6 7 8 9 11 10 8 8 8 9 10 10 12 14 17 20 21 21 21
9 3 -4 2 8 4 2 2 1 9 12 12 5 2 5 12 12 9 9 10 10 12 12 12 16 17 17 17 16 17 18 19 19 19 19 19 18 17 16 15 15 14 13 12 12 11 11 9 8 8 7 7 8 9 9 8 7 8 8 7 7 8 8 7 6 6 5 6 6 7 7 7 6 6 5 6 7 7 9 10 13 16 18 20 20 20
9 9 9 6 5 4 1 4 12 15 13 14 11 11 9 9 13 11 10 10 10 11 15 13 12 14 17 18 18 18 18 19 18 18 18 17 16 15 15 15 14 12 11 10 9 11 10 8 8 8 8 7 8 7 8 8 7 7 6 7 8 7 7 6 5 4 4 4 4 4 3 3 3 3 3 3 4 6 8 10 12 14 17 19 19 19
11 11 11 4 7 7 8 7 8 8 10 9 11 13 11 10 12 13 12 12 13 12 13 13 14 15 16 17 18 19 19 19 19 18 16 15 15 14 13 12 10 9 9 9 9 9 9 8 8 7 7 6 7 7 8 7 7 5 6 7 6 6 5 4 3 2 2 2 2 1 1 1 1 1 1 2 4 5 7 9 11 13 15 17 18 19
7 8 6 7 7 5 3 5 6 6 6 7 7 8 10 10 9 9 12 13 11 12 13 15 15 15 16 17 17 18 18 18 16 15 14 12 11 10 9 8 8 7 7 8 7 8 8 6 7 6 6 5 6 7 6 6 6 7 6 6 6 5 3 1 1 1 0 -0 -1 -1 -1 -1 -2 -2 -0 1 3 5 7 9 11 13 16 17 18 18
8 9 7 7 7 6 5 6 7 8 8 7 7 8 8 9 9 9 10 10 10 11 12 13 14 15 15 15 15 15 15 14 11 10 9 8 8 8 7 6 6 6 6 6 6 6 5 5 5 5 4 4 4 5 5 5 5 5 5 4 3 1 0 -1 -1 -2 -2 -2 -2 -3 -3 -3 -1 -1 -0 1 3 4 5 6 9 11 13 15 17 17
8 13 1 6 8 8 8 8 8 9 9 9 10 10 10 11 10 10 10 9 10 12 12 11 12 12 11 11 9 8 8 8 8 7 7 6 6 5 5 4 4 4 4 5 5 5 4 4 4 3 3 3 4 4 4 4 3 3 2 2 -0 -1 -2 -3 -3 -3 -4 -4 -4 -5 -3 -3 -2 -2 -1 0 2 3 5 7 10 12 14 17 18 19
12 11 9 8 9 9 8 8 9 6 7 8 8 8 8 8 8 8 8 12 10 9 7 6 6 7 8 7 7 6 4 5 5 5 4 4 4 4 3 3 3 3 3 3 3 3 3 2 2 1 1 2 2 2 1 1 0 -0 -0 -2 -3 -3 -4 -5 -5 -6 -6 -6 -6 -5 -4 -4 -4 -3 -2 -1 0 2 5 9 15 14 13 14 19 22
12 11 11 11 10 9 9 10 11 11 10 10 10 10 11 11 11 11 11 9 6 4 3 2 2 2 2 3 5 4 2 3 3 3 3 3 2 2 2 2 1 1 1 1 1 1 1 0 -0 -2 -3 -2 -2 -2 -3 -3 -3 -4 -4 -4 -4 -5 -6 -6 -7 -7 -7 -6 -7 -6 -6 -5 -5 -4 -3 -2 -2 -1 0 2 5 15 17 19 19 21